Boone, NC

10:28 PM EST on December 08, 2019 (GMT -0500)
Boone

Weather History for KTNB - July, 2019

Change the Weather History Date:

Sunday, July 21, 2019

  Actual Average (KGEV) Record (KGEV)
Temperature  
Mean Temperature 74 °F -  
Max Temperature 84 °F 81 °F 90 °F (1987)
Min Temperature 63 °F 59 °F 53 °F (1968)
Cooling Degree Days 8    
Growing Degree Days 24 (Base 50)    
Moisture  
Dew Point 64 °F    
Average Humidity 78    
Maximum Humidity 100    
Minimum Humidity 47    
Precipitation  
Precipitation 0.00 in - - ()
Sea Level Pressure  
Sea Level Pressure 30.15 in    
Wind  
Wind Speed 1 mph (WNW)    
Max Wind Speed 13 mph    
Max Gust Speed 17 mph    
Visibility 9 miles    
Events Thunderstorm    
Averages and records for this station are not official NWS values.
T = Trace of Precipitation, MM = Missing Value Source: NWS Daily Summary

Daily Weather History Graph

Daily Weather History Graph

Search for Another Location

Airport or City:

Astronomy

Jul. 21, 2019 Rise Set
Actual Time 6:24 AM EDT 8:40 PM EDT
Civil Twilight 5:55 AM EDT 9:09 PM EDT
Nautical Twilight 5:19 AM EDT 9:45 PM EDT
Astronomical Twilight 4:40 AM EDT 10:24 PM EDT
Moon 11:42 PM EDT (7/21) 10:37 AM EDT (7/21)
Length of Visible Light 15h 14m
Length of Day
14h 15m
Waning Gibbous, 80% of the Moon is Illuminated
Jul 21
Waning Gibbous
Jul 24
Last Quarter
Jul 31
New
Aug 7
First Quarter
Aug 15
Full

Hourly Weather History & Observations

Time (EDT) Temp. Heat Index Dew Point Humidity Pressure Visibility Wind Dir Wind Speed Gust Speed Precip Events Conditions
12:15 AM 67.8 °F - 67.3 °F 98% 30.19 in 10.0 mi Calm Calm - N/A   Clear
12:35 AM 66.4 °F - 66.4 °F 100% 30.19 in 10.0 mi Calm Calm - N/A   Clear
12:55 AM 67.5 °F - 67.5 °F 100% 30.18 in 10.0 mi Calm Calm - N/A   Clear
1:15 AM 66.4 °F - 66.2 °F 99% 30.17 in 7.0 mi Calm Calm - N/A   Clear
1:35 AM 67.5 °F - 67.1 °F 99% 30.17 in 10.0 mi Calm Calm - N/A   Clear
1:55 AM 66.7 °F - 66.2 °F 98% 30.16 in 10.0 mi Calm Calm - N/A   Clear
2:15 AM 67.8 °F - 66.6 °F 96% 30.16 in 10.0 mi Calm Calm - N/A   Clear
2:35 AM 67.1 °F - 66.7 °F 99% 30.16 in 10.0 mi Calm Calm - N/A   Clear
2:55 AM 66.0 °F - 66.0 °F 100% 30.15 in 7.0 mi Calm Calm - N/A   Clear
3:15 AM 65.3 °F - 65.3 °F 100% 30.15 in 7.0 mi Calm Calm - N/A   Clear
3:35 AM 65.1 °F - 65.1 °F 100% 30.14 in 7.0 mi Calm Calm - N/A   Clear
3:55 AM 64.6 °F - 64.6 °F 100% 30.14 in 7.0 mi Calm Calm - N/A   Clear
4:15 AM 64.6 °F - 64.6 °F 100% 30.14 in 7.0 mi Calm Calm - N/A   Clear
4:35 AM 63.7 °F - 63.7 °F 100% 30.14 in 5.0 mi Calm Calm - N/A   Clear
4:55 AM 64.6 °F - 64.6 °F 100% 30.15 in 10.0 mi Calm Calm - N/A   Clear
5:15 AM 64.0 °F - 64.0 °F 100% 30.14 in 4.0 mi Calm Calm - N/A   Clear
5:35 AM 63.5 °F - 63.5 °F 100% 30.14 in 5.0 mi Calm Calm - N/A   Clear
5:55 AM 63.1 °F - 63.1 °F 100% 30.14 in 7.0 mi Calm Calm - N/A   Clear
6:15 AM 63.0 °F - 63.0 °F 100% 30.14 in 4.0 mi Calm Calm - N/A   Clear
6:35 AM 64.0 °F - 64.0 °F 100% 30.15 in 5.0 mi Calm Calm - N/A   Clear
6:55 AM 64.6 °F - 64.6 °F 100% 30.16 in 7.0 mi Calm Calm - N/A   Clear
7:15 AM 63.3 °F - 63.3 °F 100% 30.16 in 5.0 mi Calm Calm - N/A   Clear
7:35 AM 66.0 °F - 66.0 °F 100% 30.16 in 10.0 mi Calm Calm - N/A   Clear
7:55 AM 68.9 °F - 68.2 °F 98% 30.15 in 10.0 mi Calm Calm - N/A   Clear
8:15 AM 69.8 °F - 68.2 °F 95% 30.16 in 10.0 mi Calm Calm - N/A   Clear
8:35 AM 70.9 °F - 68.7 °F 93% 30.17 in 10.0 mi Calm Calm - N/A   Clear
8:55 AM 71.2 °F - 68.0 °F 89% 30.18 in 10.0 mi West 10.4 mph - N/A   Clear
9:15 AM 72.5 °F - 66.2 °F 81% 30.18 in 10.0 mi WNW 12.7 mph 17.3 mph N/A   Clear
9:35 AM 72.7 °F - 64.6 °F 76% 30.17 in 10.0 mi West 12.7 mph - N/A   Clear
9:55 AM 73.9 °F - 64.6 °F 72% 30.17 in 10.0 mi West 10.4 mph 17.3 mph N/A   Clear
10:15 AM 75.4 °F - 64.4 °F 69% 30.17 in 10.0 mi WNW 11.5 mph - N/A   Clear
10:35 AM 75.9 °F - 64.0 °F 67% 30.17 in 10.0 mi WNW 9.2 mph 16.1 mph N/A   Clear
10:55 AM 77.2 °F - 64.0 °F 64% 30.17 in 10.0 mi West 12.7 mph 17.3 mph N/A   Clear
11:15 AM 78.6 °F - 64.6 °F 62% 30.18 in 10.0 mi West 8.1 mph - N/A   Clear
11:35 AM 78.4 °F - 63.9 °F 61% 30.17 in 10.0 mi Calm Calm - N/A   Clear
11:55 AM 79.2 °F - 62.2 °F 56% 30.17 in 10.0 mi WNW 5.8 mph - N/A   Clear
12:15 PM 79.9 °F - 62.6 °F 55% 30.17 in 10.0 mi WNW 6.9 mph 17.3 mph N/A   Clear
12:35 PM 80.6 °F 81.6 °F 61.7 °F 52% 30.17 in 10.0 mi Calm Calm - N/A   Clear
12:55 PM 81.9 °F 82.9 °F 62.8 °F 52% 30.16 in 10.0 mi Calm Calm - N/A   Clear
1:15 PM 81.9 °F 82.8 °F 61.9 °F 51% 30.16 in 10.0 mi Calm Calm - N/A   Clear
1:35 PM 82.6 °F 83.6 °F 62.6 °F 51% 30.16 in 10.0 mi Calm Calm - N/A   Clear
1:55 PM 83.1 °F 83.5 °F 61.2 °F 47% 30.15 in 10.0 mi Calm Calm - N/A   Scattered Clouds
2:15 PM 82.9 °F 83.7 °F 61.9 °F 49% 30.15 in 10.0 mi Calm Calm - N/A   Scattered Clouds
2:35 PM 81.9 °F 83.1 °F 63.3 °F 53% 30.14 in 10.0 mi Calm Calm - N/A   Clear
2:55 PM 84.2 °F 85.0 °F 62.8 °F 48% 30.14 in 10.0 mi WNW 10.4 mph - N/A Thunderstorm Scattered Clouds
3:15 PM 82.8 °F 84.0 °F 63.3 °F 52% 30.12 in 10.0 mi Calm Calm - N/A Thunderstorm Thunderstorm
3:35 PM 81.9 °F 82.9 °F 62.6 °F 52% 30.13 in 10.0 mi Calm Calm - N/A Thunderstorm Thunderstorm
3:55 PM 82.8 °F 83.8 °F 62.8 °F 51% 30.13 in 10.0 mi Calm Calm - N/A Thunderstorm Thunderstorm
4:15 PM 77.9 °F - 64.9 °F 64% 30.14 in 10.0 mi Calm Calm - N/A Thunderstorm Scattered Clouds
4:35 PM 77.4 °F - 64.2 °F 64% 30.14 in 10.0 mi Calm Calm - N/A Thunderstorm Clear
4:55 PM 79.9 °F - 64.0 °F 58% 30.14 in 10.0 mi Calm Calm - N/A Thunderstorm Clear
5:15 PM 79.0 °F - 63.9 °F 60% 30.14 in 10.0 mi Calm Calm - N/A Thunderstorm Scattered Clouds
5:35 PM 78.4 °F - 64.2 °F 62% 30.14 in 10.0 mi Calm Calm - N/A   Clear
5:55 PM 77.0 °F - 62.2 °F 60% 30.13 in 10.0 mi Calm Calm - N/A   Scattered Clouds
6:15 PM 77.2 °F - 63.1 °F 62% 30.12 in 10.0 mi Calm Calm - N/A Thunderstorm Scattered Clouds
6:35 PM 77.0 °F - 62.6 °F 61% 30.12 in 10.0 mi Calm Calm - N/A   Clear
6:55 PM 75.6 °F - 64.8 °F 69% 30.13 in 10.0 mi Calm Calm - N/A Thunderstorm Clear
7:15 PM 74.1 °F - 63.1 °F 68% 30.13 in 10.0 mi Calm Calm - N/A   Scattered Clouds
7:35 PM 73.8 °F - 61.9 °F 66% 30.12 in 10.0 mi Calm Calm - N/A   Scattered Clouds
7:55 PM 73.4 °F - 62.1 °F 68% 30.13 in 10.0 mi Calm Calm - N/A   Scattered Clouds
8:15 PM 73.4 °F - 63.0 °F 70% 30.14 in 10.0 mi Calm Calm - N/A   Clear
8:35 PM 72.5 °F - 62.8 °F 71% 30.14 in 10.0 mi Calm Calm - N/A   Clear
8:55 PM 72.1 °F - 62.8 °F 72% 30.13 in 10.0 mi Calm Calm - N/A   Clear
9:15 PM 71.1 °F - 63.5 °F 77% 30.14 in 10.0 mi Calm Calm - N/A   Scattered Clouds
9:35 PM 70.9 °F - 63.5 °F 77% 30.13 in 10.0 mi Calm Calm - N/A   Scattered Clouds
9:55 PM 68.9 °F - 63.9 °F 84% 30.12 in 10.0 mi Calm Calm - N/A   Clear
10:15 PM 70.0 °F - 64.4 °F 82% 30.14 in 10.0 mi Calm Calm - N/A   Clear
10:35 PM 70.0 °F - 63.7 °F 80% 30.14 in 10.0 mi Calm Calm - N/A   Clear
10:55 PM 69.8 °F - 63.7 °F 81% 30.15 in 10.0 mi Calm Calm - N/A   Scattered Clouds
11:15 PM 69.8 °F - 63.9 °F 81% 30.14 in 10.0 mi Calm Calm - N/A   Mostly Cloudy
11:35 PM 69.6 °F - 63.7 °F 81% 30.14 in 10.0 mi Calm Calm - N/A   Scattered Clouds
11:55 PM 69.3 °F - 63.5 °F 82% 30.14 in 10.0 mi Calm Calm - N/A   Clear